| time (UTC) | temp F | wind direction | speed MPH | gust MPH | rain 1hr in | rain 24hr in | rain mn in | humidity % | barometer mb |
| 20260508130900 | 57 | 173 | 0.0 | 2.0 | 0.00 | 0.00 | 0.00 | 62 | 1009.3 |
| 20260508130356 | 57 | 171 | 0.0 | 1.0 | 0.00 | 0.00 | 0.00 | 62 | 1009.4 |
| 20260508125852 | 57 | 173 | 0.0 | 1.0 | 0.00 | 0.00 | 0.00 | 62 | 1009.4 |
| 20260508125348 | 57 | 188 | 1.0 | 3.0 | 0.00 | 0.00 | 0.00 | 62 | 1009.2 |
| 20260508124846 | 56 | 221 | 0.0 | 2.0 | 0.00 | 0.00 | 0.00 | 62 | 1009.3 |
| 20260508124343 | 57 | 207 | 0.0 | 1.0 | 0.00 | 0.00 | 0.00 | 62 | 1009.2 |
| 20260508123842 | 57 | 167 | 0.0 | 0.0 | 0.00 | 0.00 | 0.00 | 62 | 1009.3 |
| 20260508123340 | 56 | 185 | 1.0 | 1.0 | 0.00 | 0.00 | 0.00 | 61 | 1009.1 |
| 20260508122836 | 56 | 168 | 1.0 | 1.0 | 0.00 | 0.00 | 0.00 | 62 | 1008.8 |
| 20260508122333 | 56 | 168 | 1.0 | 2.0 | 0.00 | 0.00 | 0.00 | 62 | 1008.5 |
| 20260508121830 | 56 | 168 | 0.0 | 1.0 | 0.00 | 0.00 | 0.00 | 62 | 1008.5 |
| 20260508121328 | 55 | 165 | 1.0 | 1.0 | 0.00 | 0.00 | 0.00 | 63 | 1008.6 |
| 20260508120826 | 55 | 173 | 1.0 | 1.0 | 0.00 | 0.00 | 0.00 | 62 | 1008.7 |
| 20260508120323 | 55 | 203 | 0.0 | 3.0 | 0.00 | 0.00 | 0.00 | 63 | 1008.8 |
| 20260508115821 | 55 | 169 | 0.0 | 1.0 | 0.00 | 0.00 | 0.00 | 63 | 1008.9 |
| 20260508115318 | 55 | 171 | 0.0 | 1.0 | 0.00 | 0.00 | 0.00 | 63 | 1009.1 |
| 20260508114814 | 55 | 183 | 2.0 | 2.0 | 0.00 | 0.00 | 0.00 | 62 | 1008.8 |
| 20260508114312 | 55 | 175 | 1.0 | 2.0 | 0.00 | 0.00 | 0.00 | 62 | 1009.0 |
| 20260508113808 | 55 | 169 | 0.0 | 1.0 | 0.00 | 0.00 | 0.00 | 61 | 1009.0 |
| 20260508113306 | 55 | 168 | 1.0 | 2.0 | 0.00 | 0.00 | 0.00 | 61 | 1009.1 |
| 20260508112802 | 55 | 170 | 1.0 | 1.0 | 0.00 | 0.00 | 0.00 | 61 | 1009.1 |
| 20260508112300 | 56 | 170 | 0.0 | 0.0 | 0.00 | 0.00 | 0.00 | 61 | 1009.2 |
| 20260508111755 | 56 | 176 | 0.0 | 0.0 | 0.00 | 0.00 | 0.00 | 60 | 1009.3 |
| 20260508111254 | 56 | 183 | 0.0 | 3.0 | 0.00 | 0.00 | 0.00 | 59 | 1009.0 |
| 20260508110751 | 57 | 190 | 1.0 | 2.0 | 0.00 | 0.00 | 0.00 | 58 | 1009.1 |
| 20260508110248 | 57 | 233 | 1.0 | 3.0 | 0.00 | 0.00 | 0.00 | 57 | 1009.2 |
| 20260508105748 | 57 | 278 | 3.0 | 5.0 | 0.00 | 0.00 | 0.00 | 57 | 1009.3 |
| 20260508105244 | 57 | 281 | 5.0 | 7.0 | 0.00 | 0.00 | 0.00 | 58 | 1009.3 |
| 20260508104742 | 57 | 294 | 5.0 | 7.0 | 0.00 | 0.00 | 0.00 | 58 | 1009.3 |
| 20260508104239 | 57 | 223 | 1.0 | 6.0 | 0.00 | 0.00 | 0.00 | 58 | 1009.4 |
| 20260508103736 | 58 | 289 | 5.0 | 6.0 | 0.00 | 0.00 | 0.00 | 57 | 1009.7 |
| 20260508103233 | 58 | 280 | 6.0 | 9.0 | 0.00 | 0.00 | 0.00 | 58 | 1009.3 |
| 20260508102730 | 58 | 285 | 5.0 | 7.0 | 0.00 | 0.00 | 0.00 | 57 | 1009.6 |
| 20260508102228 | 59 | 300 | 5.0 | 8.0 | 0.00 | 0.00 | 0.00 | 57 | 1009.8 |
| 20260508101725 | 59 | 282 | 5.0 | 7.0 | 0.00 | 0.00 | 0.00 | 57 | 1009.4 |
| 20260508101223 | 60 | 304 | 4.0 | 7.0 | 0.00 | 0.00 | 0.00 | 55 | 1009.6 |
| 20260508100720 | 60 | 246 | 2.0 | 5.0 | 0.00 | 0.00 | 0.00 | 54 | 1009.3 |
| 20260508100218 | 60 | 258 | 4.0 | 9.0 | 0.00 | 0.00 | 0.00 | 54 | 1009.1 |
| 20260508095714 | 60 | 276 | 5.0 | 8.0 | 0.00 | 0.00 | 0.00 | 54 | 1009.0 |
| 20260508095212 | 61 | 276 | 3.0 | 5.0 | 0.00 | 0.00 | 0.00 | 54 | 1008.9 |
| 20260508094708 | 61 | 190 | 3.0 | 7.0 | 0.00 | 0.00 | 0.00 | 53 | 1008.8 |
| 20260508094205 | 61 | 309 | 4.0 | 6.0 | 0.00 | 0.00 | 0.00 | 53 | 1008.5 |
| 20260508093702 | 61 | 181 | 3.0 | 5.0 | 0.00 | 0.00 | 0.00 | 52 | 1008.7 |
| 20260508093200 | 62 | 187 | 2.0 | 6.0 | 0.00 | 0.00 | 0.00 | 52 | 1008.5 |
| 20260508092657 | 62 | 240 | 2.0 | 9.0 | 0.00 | 0.00 | 0.00 | 52 | 1008.6 |
| 20260508092155 | 62 | 205 | 0.0 | 9.0 | 0.00 | 0.00 | 0.00 | 51 | 1008.7 |
| 20260508091652 | 62 | 258 | 2.0 | 8.0 | 0.00 | 0.00 | 0.00 | 51 | 1008.6 |
| 20260508091149 | 62 | 205 | 2.0 | 7.0 | 0.00 | 0.00 | 0.00 | 51 | 1008.6 |
| 20260508090647 | 61 | 240 | 1.0 | 11.0 | 0.00 | 0.00 | 0.00 | 51 | 1008.6 |
| 20260508090144 | 61 | 266 | 5.0 | 6.0 | 0.00 | 0.00 | 0.00 | 51 | 1008.3 |
| 20260508085640 | 61 | 242 | 2.0 | 9.0 | 0.00 | 0.00 | 0.00 | 51 | 1008.7 |
| 20260508085138 | 61 | 256 | 3.0 | 5.0 | 0.00 | 0.00 | 0.00 | 50 | 1008.8 |
| 20260508084634 | 61 | 266 | 2.0 | 5.0 | 0.00 | 0.00 | 0.00 | 50 | 1008.7 |
| 20260508084131 | 61 | 210 | 1.0 | 5.0 | 0.00 | 0.00 | 0.00 | 49 | 1008.6 |
| 20260508083628 | 61 | 208 | 1.0 | 8.0 | 0.00 | 0.00 | 0.00 | 49 | 1008.9 |
| 20260508083126 | 61 | 251 | 2.0 | 8.0 | 0.00 | 0.00 | 0.00 | 48 | 1008.5 |
| 20260508082621 | 61 | 186 | 1.0 | 8.0 | 0.00 | 0.00 | 0.00 | 48 | 1008.5 |
| 20260508082119 | 60 | 200 | 3.0 | 5.0 | 0.00 | 0.00 | 0.00 | 49 | 1008.8 |
| 20260508081616 | 60 | 224 | 4.0 | 7.0 | 0.00 | 0.00 | 0.00 | 48 | 1008.7 |
| 20260508081112 | 60 | 196 | 1.0 | 3.0 | 0.00 | 0.00 | 0.00 | 48 | 1008.7 |
| 20260508080610 | 60 | 167 | 1.0 | 7.0 | 0.00 | 0.00 | 0.00 | 47 | 1008.9 |
| 20260508080108 | 60 | 229 | 1.0 | 3.0 | 0.00 | 0.00 | 0.00 | 46 | 1008.9 |
| 20260508075603 | 60 | 192 | 1.0 | 2.0 | 0.00 | 0.00 | 0.00 | 46 | 1008.9 |
| 20260508075101 | 60 | 195 | 2.0 | 6.0 | 0.00 | 0.00 | 0.00 | 46 | 1008.9 |
| 20260508074559 | 59 | 220 | 1.0 | 5.0 | 0.00 | 0.00 | 0.00 | 47 | 1009.0 |
| 20260508074055 | 59 | 203 | 0.0 | 2.0 | 0.00 | 0.00 | 0.00 | 47 | 1008.9 |
| 20260508073553 | 59 | 274 | 1.0 | 3.0 | 0.00 | 0.00 | 0.00 | 47 | 1009.2 |
| 20260508073050 | 59 | 234 | 3.0 | 5.0 | 0.00 | 0.00 | 0.00 | 47 | 1009.1 |
| 20260508072545 | 59 | 188 | 1.0 | 3.0 | 0.00 | 0.00 | 0.00 | 48 | 1009.1 |
| 20260508072043 | 59 | 189 | 0.0 | 5.0 | 0.00 | 0.00 | 0.00 | 48 | 1009.2 |
| 20260508071541 | 59 | 341 | 0.0 | 5.0 | 0.00 | 0.00 | 0.00 | 49 | 1009.1 |
| 20260508071038 | 59 | 206 | 2.0 | 5.0 | 0.00 | 0.00 | 0.00 | 49 | 1009.2 |
| 20260508070536 | 59 | 236 | 3.0 | 3.0 | 0.00 | 0.00 | 0.00 | 50 | 1009.2 |
| 20260508070034 | 59 | 187 | 2.0 | 2.0 | 0.00 | 0.00 | 0.00 | 50 | 1009.2 |
| 20260508065531 | 59 | 217 | 1.0 | 2.0 | 0.00 | 0.00 | 0.00 | 49 | 1009.1 |
| 20260508065029 | 59 | 175 | 1.0 | 2.0 | 0.00 | 0.00 | 0.00 | 49 | 1009.4 |
| 20260508064527 | 59 | 204 | 2.0 | 6.0 | 0.00 | 0.00 | 0.00 | 49 | 1009.1 |
| 20260508064024 | 59 | 187 | 0.0 | 6.0 | 0.00 | 0.00 | 0.00 | 48 | 1008.9 |
| 20260508063521 | 59 | 235 | 3.0 | 3.0 | 0.00 | 0.00 | 0.00 | 48 | 1009.2 |
| 20260508063019 | 60 | 170 | 1.0 | 1.0 | 0.00 | 0.00 | 0.00 | 48 | 1008.9 |
| 20260508062517 | 60 | 195 | 1.0 | 3.0 | 0.00 | 0.00 | 0.00 | 47 | 1009.1 |
| 20260508062013 | 60 | 283 | 1.0 | 3.0 | 0.00 | 0.00 | 0.00 | 46 | 1009.1 |
| 20260508061512 | 60 | 228 | 1.0 | 3.0 | 0.00 | 0.00 | 0.00 | 45 | 1009.2 |
| 20260508061008 | 61 | 180 | 0.0 | 2.0 | 0.00 | 0.00 | 0.00 | 45 | 1009.2 |
| 20260508060505 | 61 | 166 | 1.0 | 5.0 | 0.00 | 0.00 | 0.00 | 45 | 1009.4 |
| 20260508060002 | 61 | 278 | 4.0 | 6.0 | 0.00 | 0.00 | 0.00 | 44 | 1009.1 |
| 20260508055458 | 61 | 246 | 3.0 | 5.0 | 0.00 | 0.00 | 0.00 | 44 | 1009.4 |
| 20260508054954 | 61 | 190 | 1.0 | 3.0 | 0.00 | 0.00 | 0.00 | 44 | 1009.3 |
| 20260508054451 | 61 | 179 | 0.0 | 5.0 | 0.00 | 0.00 | 0.00 | 44 | 1009.2 |
| 20260508053948 | 61 | 184 | 2.0 | 5.0 | 0.00 | 0.00 | 0.00 | 44 | 1009.3 |
| 20260508053445 | 61 | 208 | 2.0 | 3.0 | 0.00 | 0.00 | 0.00 | 44 | 1009.5 |
| 20260508052943 | 61 | 178 | 1.0 | 2.0 | 0.00 | 0.00 | 0.00 | 44 | 1009.7 |
| 20260508052440 | 61 | 239 | 4.0 | 6.0 | 0.00 | 0.00 | 0.00 | 43 | 1009.6 |
| 20260508051937 | 61 | 237 | 2.0 | 5.0 | 0.00 | 0.00 | 0.00 | 43 | 1009.7 |
| 20260508051432 | 61 | 173 | 1.0 | 5.0 | 0.00 | 0.00 | 0.00 | 42 | 1009.6 |
| 20260508050928 | 62 | 196 | 1.0 | 3.0 | 0.00 | 0.00 | 0.00 | 41 | 1009.3 |
| 20260508050425 | 62 | 160 | 1.0 | 5.0 | 0.00 | 0.00 | 0.00 | 41 | 1009.6 |
| 20260508045921 | 61 | 189 | 4.0 | 7.0 | 0.00 | 0.00 | 0.00 | 41 | 1009.7 |
| 20260508045419 | 61 | 278 | 1.0 | 5.0 | 0.00 | 0.00 | 0.00 | 40 | 1009.6 |
| 20260508044916 | 62 | 206 | 1.0 | 5.0 | 0.00 | 0.00 | 0.00 | 39 | 1009.7 |
| 20260508044414 | 62 | 174 | 1.0 | 2.0 | 0.00 | 0.00 | 0.00 | 39 | 1009.6 |
| 20260508043909 | 62 | 223 | 2.0 | 3.0 | 0.00 | 0.00 | 0.00 | 40 | 1009.6 |
| 20260508043406 | 62 | 197 | 0.0 | 2.0 | 0.00 | 0.00 | 0.00 | 40 | 1009.5 |
| 20260508042902 | 62 | 177 | 0.0 | 2.0 | 0.00 | 0.00 | 0.00 | 39 | 1009.7 |
| 20260508042401 | 62 | 227 | 3.0 | 5.0 | 0.00 | 0.00 | 0.00 | 39 | 1009.5 |
| 20260508041857 | 63 | 216 | 1.0 | 5.0 | 0.00 | 0.00 | 0.00 | 39 | 1009.7 |
| 20260508041353 | 63 | 220 | 3.0 | 5.0 | 0.00 | 0.00 | 0.00 | 39 | 1009.8 |
| 20260508040850 | 63 | 189 | 2.0 | 5.0 | 0.00 | 0.00 | 0.00 | 39 | 1009.9 |
| 20260508040347 | 63 | 221 | 0.0 | 1.0 | 0.00 | 0.00 | 0.00 | 39 | 1009.8 |
| 20260508035845 | 63 | 177 | 1.0 | 2.0 | 0.00 | 0.00 | 0.00 | 39 | 1009.9 |
| 20260508035342 | 63 | 211 | 1.0 | 3.0 | 0.00 | 0.00 | 0.00 | 39 | 1009.9 |
| 20260508034839 | 63 | 203 | 1.0 | 5.0 | 0.00 | 0.00 | 0.00 | 40 | 1009.7 |
| 20260508034336 | 63 | 219 | 3.0 | 5.0 | 0.00 | 0.00 | 0.00 | 40 | 1009.9 |
| 20260508033832 | 63 | 180 | 0.0 | 2.0 | 0.00 | 0.00 | 0.00 | 41 | 1009.9 |
| 20260508033331 | 64 | 188 | 1.0 | 2.0 | 0.00 | 0.00 | 0.00 | 40 | 1009.5 |
| 20260508032828 | 64 | 193 | 2.0 | 5.0 | 0.00 | 0.00 | 0.00 | 40 | 1009.8 |
| 20260508032325 | 64 | 200 | 2.0 | 5.0 | 0.00 | 0.00 | 0.00 | 39 | 1010.0 |
| 20260508031822 | 64 | 213 | 1.0 | 3.0 | 0.00 | 0.00 | 0.00 | 39 | 1010.0 |
| 20260508031319 | 64 | 173 | 1.0 | 2.0 | 0.00 | 0.00 | 0.00 | 39 | 1010.0 |
| 20260508030815 | 64 | 173 | 1.0 | 3.0 | 0.00 | 0.00 | 0.00 | 39 | 1009.9 |
| 20260508030313 | 65 | 187 | 1.0 | 5.0 | 0.00 | 0.00 | 0.00 | 39 | 1009.9 |
| 20260508025809 | 65 | 215 | 1.0 | 2.0 | 0.00 | 0.00 | 0.00 | 38 | 1009.7 |
| 20260508025306 | 65 | 177 | 1.0 | 2.0 | 0.00 | 0.00 | 0.00 | 39 | 1009.8 |
| 20260508024802 | 64 | 195 | 1.0 | 6.0 | 0.00 | 0.00 | 0.00 | 39 | 1009.6 |
| 20260508024259 | 65 | 179 | 1.0 | 2.0 | 0.00 | 0.00 | 0.00 | 39 | 1009.5 |
| 20260508023756 | 65 | 167 | 0.0 | 2.0 | 0.00 | 0.00 | 0.00 | 39 | 1009.4 |
| 20260508023253 | 65 | 161 | 0.0 | 1.0 | 0.00 | 0.00 | 0.00 | 38 | 1009.5 |
| 20260508022749 | 65 | 160 | 0.0 | 0.0 | 0.00 | 0.00 | 0.00 | 37 | 1009.6 |
| 20260508022246 | 65 | 160 | 0.0 | 0.0 | 0.00 | 0.00 | 0.00 | 38 | 1009.4 |
| 20260508021743 | 66 | 160 | 0.0 | 0.0 | 0.00 | 0.00 | 0.00 | 38 | 1009.3 |
| 20260508021238 | 66 | 161 | 0.0 | 0.0 | 0.00 | 0.00 | 0.00 | 37 | 1009.4 |
| 20260508020735 | 66 | 165 | 0.0 | 1.0 | 0.00 | 0.00 | 0.00 | 37 | 1009.0 |
| 20260508020233 | 67 | 159 | 0.0 | 1.0 | 0.00 | 0.00 | 0.00 | 37 | 1009.2 |
| 20260508015729 | 67 | 160 | 0.0 | 1.0 | 0.00 | 0.00 | 0.00 | 35 | 1009.2 |
| 20260508015227 | 68 | 161 | 0.0 | 0.0 | 0.00 | 0.00 | 0.00 | 36 | 1009.3 |
| 20260508014724 | 68 | 162 | 0.0 | 0.0 | 0.00 | 0.00 | 0.00 | 35 | 1009.1 |
| 20260508014220 | 69 | 162 | 0.0 | 0.0 | 0.00 | 0.00 | 0.00 | 34 | 1009.1 |
| 20260508013716 | 70 | 162 | 0.0 | 0.0 | 0.00 | 0.00 | 0.00 | 33 | 1009.0 |
| 20260508013212 | 71 | 163 | 0.0 | 0.0 | 0.00 | 0.00 | 0.00 | 32 | 1009.1 |
| 20260508012711 | 71 | 161 | 0.0 | 1.0 | 0.00 | 0.00 | 0.00 | 31 | 1009.0 |
| 20260508012207 | 71 | 159 | 0.0 | 1.0 | 0.00 | 0.00 | 0.00 | 31 | 1009.0 |
| 20260508011705 | 72 | 158 | 0.0 | 0.0 | 0.00 | 0.00 | 0.00 | 30 | 1009.0 |
| 20260508011203 | 73 | 160 | 0.0 | 0.0 | 0.00 | 0.00 | 0.00 | 29 | 1008.9 |
| 20260508010659 | 74 | 162 | 0.0 | 1.0 | 0.00 | 0.00 | 0.00 | 28 | 1008.8 |
| 20260508010157 | 75 | 160 | 0.0 | 0.0 | 0.00 | 0.00 | 0.00 | 27 | 1008.9 |
| 20260508005654 | 75 | 164 | 1.0 | 1.0 | 0.00 | 0.00 | 0.00 | 27 | 1008.8 |
| 20260508005150 | 76 | 166 | 0.0 | 2.0 | 0.00 | 0.00 | 0.00 | 26 | 1008.8 |
| 20260508004646 | 77 | 173 | 0.0 | 1.0 | 0.00 | 0.00 | 0.00 | 26 | 1008.8 |
| 20260508004143 | 77 | 177 | 0.0 | 1.0 | 0.00 | 0.00 | 0.00 | 25 | 1009.0 |
| 20260508003639 | 78 | 166 | 0.0 | 2.0 | 0.00 | 0.00 | 0.00 | 24 | 1008.9 |
| 20260508003137 | 78 | 233 | 3.0 | 3.0 | 0.00 | 0.00 | 0.00 | 23 | 1008.9 |
| 20260508002633 | 78 | 217 | 2.0 | 9.0 | 0.00 | 0.00 | 0.00 | 24 | 1008.9 |
| 20260508002131 | 79 | 256 | 3.0 | 3.0 | 0.00 | 0.00 | 0.00 | 23 | 1008.8 |
| 20260508001626 | 79 | 180 | 1.0 | 6.0 | 0.00 | 0.00 | 0.00 | 23 | 1008.9 |
| 20260508001122 | 80 | 221 | 3.0 | 3.0 | 0.00 | 0.00 | 0.00 | 23 | 1008.9 |
| 20260508000618 | 79 | 207 | 1.0 | 5.0 | 0.00 | 0.00 | 0.00 | 23 | 1008.9 |
| 20260508000116 | 80 | 309 | 2.0 | 7.0 | 0.00 | 0.00 | 0.00 | 23 | 1008.7 |
| 20260507235613 | 79 | 203 | 2.0 | 6.0 | 0.00 | 0.00 | 0.00 | 23 | 1009.1 |
| 20260507235110 | 80 | 185 | 3.0 | 7.0 | 0.00 | 0.00 | 0.00 | 22 | 1009.0 |
| 20260507234606 | 80 | 186 | 2.0 | 7.0 | 0.00 | 0.00 | 0.00 | 23 | 1009.0 |
| 20260507234103 | 80 | 311 | 3.0 | 9.0 | 0.00 | 0.00 | 0.00 | 22 | 1009.2 |
| 20260507233600 | 80 | 264 | 3.0 | 9.0 | 0.00 | 0.00 | 0.00 | 22 | 1009.1 |
| 20260507233059 | 80 | 256 | 4.0 | 6.0 | 0.00 | 0.00 | 0.00 | 22 | 1009.0 |
| 20260507232554 | 80 | 287 | 1.0 | 3.0 | 0.00 | 0.00 | 0.00 | 23 | 1009.1 |
| 20260507232052 | 80 | 285 | 5.0 | 7.0 | 0.00 | 0.00 | 0.00 | 21 | 1009.0 |
| 20260507231548 | 80 | 305 | 2.0 | 5.0 | 0.00 | 0.00 | 0.00 | 22 | 1009.1 |
| 20260507231045 | 81 | 215 | 2.0 | 5.0 | 0.00 | 0.00 | 0.00 | 22 | 1009.1 |
| 20260507230542 | 81 | 250 | 4.0 | 6.0 | 0.00 | 0.00 | 0.00 | 22 | 1009.0 |
| 20260507230038 | 80 | 295 | 2.0 | 8.0 | 0.00 | 0.00 | 0.00 | 22 | 1009.0 |
| 20260507225533 | 81 | 315 | 2.0 | 7.0 | 0.00 | 0.00 | 0.00 | 22 | 1009.2 |
| 20260507225030 | 80 | 226 | 2.0 | 5.0 | 0.00 | 0.00 | 0.00 | 23 | 1009.2 |
| 20260507224526 | 80 | 319 | 5.0 | 7.0 | 0.00 | 0.00 | 0.00 | 22 | 1009.3 |
| 20260507224022 | 80 | 264 | 5.0 | 7.0 | 0.00 | 0.00 | 0.00 | 22 | 1009.2 |
| 20260507223519 | 80 | 309 | 4.0 | 9.0 | 0.00 | 0.00 | 0.00 | 22 | 1009.1 |
| 20260507223016 | 80 | 193 | 4.0 | 8.0 | 0.00 | 0.00 | 0.00 | 21 | 1009.0 |
| 20260507222513 | 80 | 349 | 7.0 | 11.0 | 0.00 | 0.00 | 0.00 | 21 | 1009.4 |
| 20260507222009 | 81 | 201 | 2.0 | 5.0 | 0.00 | 0.00 | 0.00 | 22 | 1009.2 |
| 20260507221506 | 80 | 287 | 5.0 | 8.0 | 0.00 | 0.00 | 0.00 | 22 | 1009.5 |
| 20260507221003 | 80 | 260 | 4.0 | 9.0 | 0.00 | 0.00 | 0.00 | 22 | 1009.4 |
| 20260507220500 | 80 | 123 | 2.0 | 7.0 | 0.00 | 0.00 | 0.00 | 22 | 1009.5 |
| 20260507215956 | 80 | 315 | 4.0 | 8.0 | 0.00 | 0.00 | 0.00 | 22 | 1009.5 |
| 20260507215453 | 80 | 211 | 3.0 | 10.0 | 0.00 | 0.00 | 0.00 | 22 | 1009.6 |
| 20260507214951 | 80 | 277 | 7.0 | 9.0 | 0.00 | 0.00 | 0.00 | 22 | 1009.6 |
| 20260507214448 | 81 | 196 | 3.0 | 9.0 | 0.00 | 0.00 | 0.00 | 23 | 1009.7 |
| 20260507213943 | 80 | 290 | 5.0 | 7.0 | 0.00 | 0.00 | 0.00 | 22 | 1009.8 |
| 20260507213440 | 80 | 218 | 3.0 | 8.0 | 0.00 | 0.00 | 0.00 | 23 | 1009.8 |
| 20260507212937 | 80 | 264 | 5.0 | 8.0 | 0.00 | 0.00 | 0.00 | 22 | 1009.9 |
| 20260507212433 | 80 | 283 | 6.0 | 7.0 | 0.00 | 0.00 | 0.00 | 22 | 1009.7 |
| 20260507211930 | 80 | 147 | 1.0 | 7.0 | 0.00 | 0.00 | 0.00 | 23 | 1010.2 |
| 20260507211426 | 80 | 221 | 7.0 | 9.0 | 0.00 | 0.00 | 0.00 | 22 | 1010.3 |
| 20260507210923 | 79 | 185 | 1.0 | 7.0 | 0.00 | 0.00 | 0.00 | 24 | 1010.3 |
| 20260507210421 | 79 | 170 | 6.0 | 10.0 | 0.00 | 0.00 | 0.00 | 23 | 1010.5 |
| 20260507205917 | 79 | 214 | 5.0 | 8.0 | 0.00 | 0.00 | 0.00 | 23 | 1010.5 |
| 20260507205415 | 79 | 263 | 7.0 | 13.0 | 0.00 | 0.00 | 0.00 | 22 | 1010.5 |
| 20260507204910 | 79 | 182 | 3.0 | 7.0 | 0.00 | 0.00 | 0.00 | 23 | 1010.6 |
| 20260507204407 | 79 | 253 | 3.0 | 7.0 | 0.00 | 0.00 | 0.00 | 24 | 1010.7 |
| 20260507203905 | 79 | 251 | 4.0 | 7.0 | 0.00 | 0.00 | 0.00 | 23 | 1010.7 |
| 20260507203403 | 80 | 282 | 5.0 | 6.0 | 0.00 | 0.00 | 0.00 | 22 | 1010.7 |
| 20260507202858 | 79 | 166 | 2.0 | 6.0 | 0.00 | 0.00 | 0.00 | 24 | 1010.9 |
| 20260507202355 | 78 | 308 | 5.0 | 7.0 | 0.00 | 0.00 | 0.00 | 22 | 1011.0 |
| 20260507201850 | 78 | 226 | 6.0 | 8.0 | 0.00 | 0.00 | 0.00 | 23 | 1011.0 |
| 20260507201346 | 79 | 264 | 4.0 | 10.0 | 0.00 | 0.00 | 0.00 | 22 | 1011.0 |
| 20260507200843 | 79 | 298 | 7.0 | 10.0 | 0.00 | 0.00 | 0.00 | 22 | 1011.4 |
| 20260507200339 | 79 | 309 | 3.0 | 6.0 | 0.00 | 0.00 | 0.00 | 23 | 1011.1 |
| 20260507195835 | 78 | 261 | 6.0 | 8.0 | 0.00 | 0.00 | 0.00 | 22 | 1011.4 |
| 20260507195332 | 79 | 285 | 4.0 | 8.0 | 0.00 | 0.00 | 0.00 | 23 | 1011.3 |
| 20260507194830 | 78 | 270 | 3.0 | 7.0 | 0.00 | 0.00 | 0.00 | 24 | 1011.4 |
| 20260507194326 | 77 | 174 | 2.0 | 9.0 | 0.00 | 0.00 | 0.00 | 24 | 1011.4 |
| 20260507193823 | 77 | 15 | 3.0 | 6.0 | 0.00 | 0.00 | 0.00 | 24 | 1011.5 |
| 20260507193320 | 77 | 185 | 2.0 | 6.0 | 0.00 | 0.00 | 0.00 | 24 | 1011.6 |
| 20260507192815 | 77 | 256 | 4.0 | 9.0 | 0.00 | 0.00 | 0.00 | 24 | 1011.4 |
| 20260507192313 | 76 | 283 | 6.0 | 11.0 | 0.00 | 0.00 | 0.00 | 23 | 1011.7 |
| 20260507191809 | 77 | 236 | 4.0 | 13.0 | 0.00 | 0.00 | 0.00 | 24 | 1011.9 |
| 20260507191305 | 76 | 248 | 3.0 | 5.0 | 0.00 | 0.00 | 0.00 | 25 | 1012.1 |
| 20260507190802 | 76 | 300 | 5.0 | 10.0 | 0.00 | 0.00 | 0.00 | 24 | 1012.0 |
| 20260507190301 | 76 | 182 | 2.0 | 6.0 | 0.00 | 0.00 | 0.00 | 27 | 1012.0 |
| 20260507185759 | 75 | 294 | 8.0 | 13.0 | 0.00 | 0.00 | 0.00 | 26 | 1012.2 |
| 20260507185255 | 76 | 218 | 5.0 | 11.0 | 0.00 | 0.00 | 0.00 | 25 | 1012.2 |
| 20260507184753 | 75 | 248 | 3.0 | 7.0 | 0.00 | 0.00 | 0.00 | 27 | 1012.5 |
| 20260507184251 | 75 | 269 | 4.0 | 6.0 | 0.00 | 0.00 | 0.00 | 26 | 1012.5 |
| 20260507183747 | 75 | 208 | 5.0 | 9.0 | 0.00 | 0.00 | 0.00 | 25 | 1012.4 |
| 20260507183244 | 75 | 216 | 5.0 | 8.0 | 0.00 | 0.00 | 0.00 | 27 | 1012.6 |
| 20260507182742 | 75 | 244 | 2.0 | 10.0 | 0.00 | 0.00 | 0.00 | 28 | 1012.8 |
| 20260507182236 | 74 | 224 | 3.0 | 9.0 | 0.00 | 0.00 | 0.00 | 31 | 1012.8 |
| 20260507181734 | 73 | 289 | 9.0 | 13.0 | 0.00 | 0.00 | 0.00 | 28 | 1013.0 |
| 20260507181230 | 73 | 218 | 4.0 | 13.0 | 0.00 | 0.00 | 0.00 | 29 | 1013.0 |
| 20260507180726 | 73 | 290 | 6.0 | 9.0 | 0.00 | 0.00 | 0.00 | 31 | 1013.0 |
| 20260507180223 | 72 | 261 | 4.0 | 7.0 | 0.00 | 0.00 | 0.00 | 33 | 1013.1 |
| 20260507175719 | 71 | 238 | 5.0 | 10.0 | 0.00 | 0.00 | 0.00 | 34 | 1013.3 |
| 20260507175216 | 71 | 247 | 3.0 | 9.0 | 0.00 | 0.00 | 0.00 | 34 | 1013.2 |
| 20260507174714 | 71 | 226 | 4.0 | 7.0 | 0.00 | 0.00 | 0.00 | 34 | 1013.3 |
| 20260507174211 | 70 | 260 | 6.0 | 9.0 | 0.00 | 0.00 | 0.00 | 34 | 1013.3 |
| 20260507173709 | 71 | 248 | 4.0 | 9.0 | 0.00 | 0.00 | 0.00 | 34 | 1013.4 |
| 20260507173205 | 72 | 275 | 8.0 | 11.0 | 0.00 | 0.00 | 0.00 | 34 | 1013.5 |
| 20260507172702 | 70 | 278 | 3.0 | 5.0 | 0.00 | 0.00 | 0.00 | 36 | 1013.8 |
| 20260507172159 | 69 | 312 | 5.0 | 9.0 | 0.00 | 0.00 | 0.00 | 37 | 1013.9 |
| 20260507171658 | 69 | 298 | 3.0 | 6.0 | 0.00 | 0.00 | 0.00 | 38 | 1014.1 |
| 20260507171156 | 68 | 260 | 3.0 | 6.0 | 0.00 | 0.00 | 0.00 | 38 | 1014.1 |
| 20260507170653 | 68 | 282 | 4.0 | 8.0 | 0.00 | 0.00 | 0.00 | 38 | 1014.2 |
| 20260507170150 | 68 | 213 | 6.0 | 14.0 | 0.00 | 0.00 | 0.00 | 38 | 1014.4 |
| 20260507165646 | 67 | 302 | 4.0 | 8.0 | 0.00 | 0.00 | 0.00 | 39 | 1014.4 |
| 20260507165142 | 67 | 280 | 4.0 | 9.0 | 0.00 | 0.00 | 0.00 | 39 | 1014.4 |
| 20260507164638 | 67 | 276 | 4.0 | 10.0 | 0.00 | 0.00 | 0.00 | 40 | 1014.7 |
| 20260507164136 | 67 | 291 | 4.0 | 9.0 | 0.00 | 0.00 | 0.00 | 39 | 1014.4 |
| 20260507163633 | 66 | 306 | 6.0 | 8.0 | 0.00 | 0.00 | 0.00 | 40 | 1014.6 |
| 20260507163131 | 66 | 273 | 3.0 | 10.0 | 0.00 | 0.00 | 0.00 | 40 | 1014.6 |
| 20260507162626 | 65 | 208 | 3.0 | 7.0 | 0.00 | 0.00 | 0.00 | 41 | 1014.6 |
| 20260507162123 | 65 | 217 | 3.0 | 10.0 | 0.00 | 0.00 | 0.00 | 42 | 1014.6 |
| 20260507161619 | 65 | 258 | 5.0 | 13.0 | 0.00 | 0.00 | 0.00 | 42 | 1014.7 |
| 20260507161116 | 64 | 223 | 7.0 | 18.0 | 0.00 | 0.00 | 0.00 | 43 | 1014.8 |
| 20260507160612 | 65 | 216 | 2.0 | 3.0 | 0.00 | 0.00 | 0.00 | 45 | 1014.8 |
| 20260507160109 | 64 | 301 | 5.0 | 7.0 | 0.00 | 0.00 | 0.00 | 45 | 1014.8 |
| 20260507155604 | 63 | 204 | 3.0 | 10.0 | 0.00 | 0.00 | 0.00 | 47 | 1014.7 |
| 20260507155101 | 62 | 295 | 7.0 | 10.0 | 0.00 | 0.00 | 0.00 | 48 | 1015.1 |
| 20260507154558 | 61 | 228 | 4.0 | 7.0 | 0.00 | 0.00 | 0.00 | 50 | 1015.0 |
| 20260507154055 | 61 | 248 | 6.0 | 9.0 | 0.00 | 0.00 | 0.00 | 50 | 1015.2 |
| 20260507153552 | 60 | 214 | 3.0 | 6.0 | 0.00 | 0.00 | 0.00 | 52 | 1015.5 |
| 20260507153048 | 60 | 249 | 6.0 | 10.0 | 0.00 | 0.00 | 0.00 | 52 | 1015.4 |
| 20260507152544 | 59 | 250 | 5.0 | 8.0 | 0.00 | 0.00 | 0.00 | 54 | 1015.5 |
| 20260507152040 | 58 | 309 | 5.0 | 8.0 | 0.00 | 0.00 | 0.00 | 55 | 1015.4 |
| 20260507151536 | 58 | 265 | 6.0 | 8.0 | 0.00 | 0.00 | 0.00 | 57 | 1015.6 |
| 20260507151034 | 57 | 240 | 4.0 | 7.0 | 0.00 | 0.00 | 0.00 | 57 | 1015.6 |
| 20260507150530 | 57 | 228 | 3.0 | 9.0 | 0.00 | 0.00 | 0.00 | 59 | 1015.8 |
| 20260507150022 | 56 | 224 | 3.0 | 5.0 | 0.00 | 0.00 | 0.00 | 61 | 1015.6 |
| 20260507145516 | 56 | 279 | 2.0 | 9.0 | 0.00 | 0.00 | 0.00 | 62 | 1015.9 |
| 20260507145015 | 56 | 251 | 3.0 | 5.0 | 0.00 | 0.00 | 0.00 | 62 | 1015.7 |
| 20260507144511 | 55 | 184 | 1.0 | 9.0 | 0.00 | 0.00 | 0.00 | 65 | 1015.9 |
| 20260507144008 | 54 | 277 | 1.0 | 5.0 | 0.00 | 0.00 | 0.00 | 66 | 1015.9 |
| 20260507143505 | 54 | 205 | 3.0 | 8.0 | 0.00 | 0.00 | 0.00 | 67 | 1016.1 |
| 20260507143003 | 54 | 242 | 3.0 | 8.0 | 0.00 | 0.00 | 0.00 | 68 | 1016.0 |
| 20260507142458 | 53 | 252 | 2.0 | 5.0 | 0.00 | 0.00 | 0.00 | 70 | 1016.1 |
| 20260507141955 | 52 | 211 | 2.0 | 10.0 | 0.00 | 0.00 | 0.00 | 72 | 1016.0 |
| 20260507141451 | 51 | 311 | 2.0 | 5.0 | 0.00 | 0.00 | 0.00 | 73 | 1016.1 |
| 20260507140948 | 51 | 278 | 5.0 | 8.0 | 0.00 | 0.00 | 0.00 | 75 | 1016.2 |
| 20260507140444 | 51 | 255 | 2.0 | 6.0 | 0.00 | 0.00 | 0.00 | 76 | 1016.2 |
| 20260507135942 | 50 | 276 | 5.0 | 8.0 | 0.00 | 0.00 | 0.00 | 77 | 1016.1 |
| 20260507135439 | 49 | 230 | 3.0 | 9.0 | 0.00 | 0.00 | 0.00 | 79 | 1016.5 |
| 20260507134936 | 48 | 267 | 5.0 | 10.0 | 0.00 | 0.00 | 0.00 | 80 | 1016.3 |
| 20260507134432 | 48 | 301 | 3.0 | 10.0 | 0.00 | 0.00 | 0.00 | 81 | 1016.7 |
| 20260507133928 | 48 | 272 | 4.0 | 6.0 | 0.00 | 0.00 | 0.00 | 81 | 1016.6 |
| 20260507133424 | 47 | 211 | 2.0 | 6.0 | 0.00 | 0.00 | 0.00 | 82 | 1016.7 |
| 20260507132918 | 46 | 229 | 1.0 | 9.0 | 0.00 | 0.00 | 0.00 | 84 | 1016.9 |
| 20260507132413 | 45 | 225 | 3.0 | 7.0 | 0.00 | 0.00 | 0.00 | 84 | 1016.8 |
| 20260507131910 | 45 | 264 | 5.0 | 11.0 | 0.00 | 0.00 | 0.00 | 85 | 1016.8 |
| 20260507131407 | 45 | 239 | 3.0 | 5.0 | 0.00 | 0.00 | 0.00 | 86 | 1016.9 |